This is the latest recevied weather packets stored in our database for station/object KA1JKB. If no packets are shown the sender has not sent any weather packets the latest 10 day(s).
| Time | Temp. | Humidity | Pressure | Rain* | Wind** | Luminosity | Snow |
|---|---|---|---|---|---|---|---|
| 1777602045 | 6.11° C | 74% | 1012.6 hPa | 0 mm | - | 0 W/m² | - |
| 1777601744 | 6.67° C | 71% | 1012.7 hPa | 0 mm | - | 0 W/m² | - |
| 1777601440 | 7.22° C | 66% | 1012.7 hPa | 0 mm | - | 0 W/m² | - |
| 1777601137 | 7.78° C | 64% | 1012.5 hPa | 0 mm | - | 0 W/m² | - |
| 1777600835 | 7.78° C | 63% | 1012.5 hPa | 0 mm | - | 0 W/m² | - |
| 1777600529 | 7.78° C | 62% | 1012.4 hPa | 0 mm | - | 0 W/m² | - |
| 1777600226 | 7.78° C | 60% | 1012.2 hPa | 0 mm | - | 0 W/m² | - |
| 1777599921 | 7.78° C | 62% | 1011.9 hPa | 0 mm | - | 0 W/m² | - |
| 1777599618 | 7.78° C | 62% | 1011.8 hPa | 0 mm | - | 0 W/m² | - |
| 1777599315 | 7.78° C | 61% | 1012 hPa | 0 mm | - | 0 W/m² | - |
| 1777599012 | 7.78° C | 62% | 1011.9 hPa | 0 mm | - | 0 W/m² | - |
| 1777598708 | 7.78° C | 60% | 1012 hPa | 0 mm | - | 0 W/m² | - |
| 1777598404 | 8.33° C | 60% | 1011.7 hPa | 0 mm | - | 0 W/m² | - |
| 1777598103 | 8.33° C | 60% | 1011.3 hPa | 0 mm | - | 0 W/m² | - |
| 1777597803 | 8.33° C | 60% | 1011.5 hPa | 0 mm | - | 0 W/m² | - |
| 1777597497 | 8.33° C | 60% | 1011.4 hPa | 0 mm | - | 0 W/m² | - |
| 1777597194 | 8.33° C | 61% | 1011.6 hPa | 0 mm | - | 0 W/m² | - |
| 1777596889 | 8.33° C | 60% | 1011.6 hPa | 0 mm | - | 0 W/m² | - |
| 1777596586 | 8.33° C | 59% | 1011.6 hPa | 0 mm | - | 0 W/m² | - |
| 1777596283 | 8.33° C | 58% | 1011.6 hPa | 0 mm | - | 0 W/m² | - |
| 1777595980 | 8.33° C | 60% | 1011.6 hPa | 0 mm | - | 0 W/m² | - |
| 1777595675 | 8.33° C | 60% | 1011.5 hPa | 0 mm | - | 1 W/m² | - |
| 1777595370 | 8.33° C | 58% | 1011.4 hPa | 0 mm | - | 2 W/m² | - |
| 1777595067 | 8.33° C | 58% | 1011.4 hPa | 0 mm | - | 3 W/m² | - |
| 1777594764 | 8.89° C | 55% | 1011.5 hPa | 0 mm | - | 4 W/m² | - |
* Rain latest hour (hover to see other rain measurements)
** Current wind speed in m/s (hover to see current wind gust speed)